Location: Augirein
(42.9320°N, 0.9181°E)
Time: 18:01:57
(UTC+00:00)

DELTA 2 R/B (1) - Visible Passes

Search period start: 21 October 2021 00:00
Search period end: 31 October 2021 00:00
Orbit: 790 x 802 km, 39.6° (Epoch: 21 October)

Date Brightness Start Highest point End Pass type
(mag) Time Alt. Az. Time Alt. Az. Time Alt. Az.
21 Oct 6.0 03:19:56 12° SSE 03:19:56 12° SSE 03:20:18 10° SSE visible
25 Oct 5.5 19:18:50 10° SSW 19:20:37 17° S 19:20:37 17° S visible
26 Oct 5.1 18:48:07 10° SSW 18:51:38 20° SSE 18:51:38 20° SSE visible
27 Oct 5.1 18:17:26 10° S 18:21:14 19° SSE 18:22:35 17° SE visible
27 Oct 5.6 20:01:36 10° SW 20:03:21 20° SW 20:03:21 20° SW visible
28 Oct 5.3 17:46:45 10° S 17:50:21 18° SE 17:53:27 12° ESE visible
28 Oct 4.7 19:30:42 10° SW 19:34:14 34° SSW 19:34:14 34° SSW visible
29 Oct 5.4 17:16:08 10° S 17:19:28 16° SE 17:22:48 10° ESE visible
29 Oct 4.1 18:59:49 10° SW 19:05:02 42° SSE 19:05:02 42° SSE visible
29 Oct 6.4 20:45:38 10° WSW 20:45:49 11° WSW 20:45:49 11° WSW visible
30 Oct 4.2 18:28:56 10° SW 18:34:08 40° SSE 18:35:48 32° ESE visible
30 Oct 5.7 20:14:41 10° WSW 20:16:34 22° WSW 20:16:34 22° WSW visible
